Other Public Products
Issued by NWS Grand Forks, ND

Home | Current Version | Previous Version | Graphics & Text | Print | Product List | Glossary On
Versions: 1 2 3 4 5 6 7 8 9 10 11 12 13 14 15 16 17 18 19 20 21 22 23 24 25 26 27 28 29 30 31 32 33 34 35 36 37 38 39 40 41 42 43 44 45 46 47 48 49 50
870
FPUS83 KFGF 170331
OPUFGF
PRAIRIE TO PINES WEATHER ROUNDUP
NATIONAL WEATHER SERVICE EASTERN NORTH DAKOTA/GRAND FORKS ND
900 PM CST TUE JAN 16 2018

 **SATELLITE DATA USED TO AUGMENT SKY COVER AT AUTOMATED STATIONS**
 *****  WEATHER ACROSS EASTERN NORTH DAKOTA  *****

CITY           SKY/WX    TMP DP  RH WIND       PRES   REMARKS
GRAND FORKS    FAIR       5  -2  72 S15       30.34F WCI -13
GRND FORKS AFB FAIR       6  -4  63 S15       30.32F WCI -12
GRND FORKS NWS   N/A      5 N/A N/A S16         N/A  WCI -14
BUXTON           N/A      3   2  94 S10         N/A  WCI -12
DEVILS LAKE    FAIR       4  -4  69 SW12      30.25F WCI -12
FARGO          FAIR       5  -3  69 S16       30.44F WCI -14
WAHPETON ARPT  FAIR       1  -4  78 S9        30.46F WCI -14
$$

 *****  WEATHER ACROSS CENTRAL AND WESTERN NORTH DAKOTA  *****

CITY           SKY/WX    TMP DP  RH WIND       PRES   REMARKS
JAMESTOWN      FAIR       5  -3  69 S9        30.31F WCI  -9
BISMARCK       FAIR       8  -4  58 SW5       30.31F WCI   0
MINOT          FAIR      15  -1  49 S21       30.15F WCI  -2
MINOT AFB      FAIR      13  -1  54 S6        30.15F WCI   3
GARRISON         N/A      1  -6  72 S8        30.21F WCI -13
WILLISTON      FAIR       4  -3  73 CALM      30.16F
DICKINSON      FAIR       9  -2  61 S14       30.14F WCI  -7
HETTINGER      FAIR       6  -3  66 S5        30.21F WCI  -3
$$

 *****  OTHER OBSERVATIONS NORTHEAST NORTH DAKOTA  *****

CITY           SKY/WX    TMP DP  RH WIND       PRES   REMARKS
WALHALLA       FAIR      10  -6  48 CALM      30.21F
LANGDON        FAIR       3  -4  72 SW17      30.19F WCI -17
CAVALIER         N/A      9  -6  52 S13       30.24F WCI  -7
GRAFTON        FAIR       3  -4  72 S13       30.31F WCI -14
CANDO          FAIR       3  -6  66 SW12      30.23F WCI -13
FORT TOTTEN    NOT AVBL
ROLLA          FAIR       7  -6  56 SW24G36   30.12F WCI -15
RUGBY          FAIR       5  -6  61 S12       30.20F WCI -11
 ***** THE ABOVE OBSERVATIONS ARE NON NWS ARE NOT QUALITY
        CONTROLLED AND MAY MIS-REPORT RAIN FOR SNOW...
$$

 *****  OTHER OBSERVATIONS SOUTHEAST NORTH DAKOTA *****

CITY           SKY/WX    TMP DP  RH WIND       PRES   REMARKS
COOPERSTOWN    FAIR       5  -2  72 SW13      30.30F WCI -12
VALLEY CITY    FLURRIES   7  -2  66 SW21      30.33F WCI -13
OAKES            N/A      3  -2  78 S16       30.38F WCI -16
GWINNER          N/A      3  -2  78 SW18      30.38F WCI -17
SHEYENNE NWR     N/A      2  -5  72 SW7       29.95S WCI -11
BUFFALO          N/A      6  -4  65 E13         N/A  WCI -11
WYNDMERE       NOT AVBL
 ***** THE ABOVE OBSERVATIONS ARE NON NWS ARE NOT QUALITY
       CONTROLLED AND MAY MIS-REPORT RAIN FOR SNOW...
$$

  *****  WEATHER ACROSS NORTHERN MINNESOTA  *****

CITY           SKY/WX    TMP DP  RH WIND       PRES   REMARKS
FLAG ISLAND    FAIR       3  -8  60 SW16      30.21F WCI -16
WARROAD        FAIR       3  -6  66 SW15G22   30.25F WCI -15
ROSEAU         FAIR       5  -2  72 S14       30.26F WCI -12
HALLOCK        FAIR       1  -4  78 S16       30.28F WCI -18
THF RVR FALLS  FAIR       2  -4  76 S17       30.35F WCI -18
HALSTAD        NOT AVBL
FOSSTON        FAIR       0  -8  71 S17       30.36F WCI -21
BAUDETTE       FAIR       3  -9  57 SW12      30.26F WCI -13
WASKISH        FAIR       3  -8  60 SW9       30.31F WCI -11
CROOKSTON      FAIR       3  -2  78 S20G25    30.37F WCI -18
$$
  *****  WEATHER ACROSS CENTRAL AND WEST MINNESOTA  *****

CITY           SKY/WX    TMP DP  RH WIND       PRES   REMARKS
BEMIDJI        FAIR       4  -9  56 SW7       30.34F WCI  -8
PARK RAPIDS    FAIR       2  -7  66 SW8       30.39F WCI -12
WADENA         FAIR       0  -6  78 SW6       30.41F WCI -12
DETROIT LAKES  FAIR       5  -2  72 S7        30.41F WCI  -7
MOORHEAD       FAIR       3  -4  72 S12       30.44F WCI -13
FERGUS FALLS   FAIR       0  -6  78 S8        30.50F WCI -15
ELBOW LAKE     FAIR       0  -4  82 S9        30.46S WCI -16
MORRIS MN      FAIR       1  -4  78 S8        30.47F WCI -12
STAPLES        FAIR       0  -8  71 SW5       30.43F WCI -10
WHEATON        FAIR       3  -2  78 S8        30.48F WCI -10
$$
  *****  WEATHER ELSEWHERE ACROSS MINNESOTA  *****

CITY           SKY/WX    TMP DP  RH WIND       PRES   REMARKS
DULUTH         FAIR       4  -2  76 W13       30.36F WCI -13
INTRNTL FALLS  MOCLDY     6  -8  52 SW13      30.28F WCI -10
ELY            MOCLDY     5  -2  72 SW8       30.30F WCI  -8
CLOQUET        FAIR       5  -4  66 SW8       30.38F WCI  -8
BRAINERD       FAIR       3  -5  69 SW7       30.44F WCI  -9
HIBBING        FAIR       3  -3  76 S3        30.35F
ALEXANDRIA     FAIR       1  -4  79 SW9       30.46F WCI -14
SAINT CLOUD    FAIR      -4  -7  87 SW5       30.51F WCI -15
MINNEAPOLIS    FAIR       2  -3  80 SW6       30.56F WCI  -9
$$

  *****  WEATHER ACROSS SOUTH DAKOTA  *****

CITY           SKY/WX    TMP DP  RH WIND       PRES   REMARKS
SIOUX FALLS    FAIR       0  -3  87 SW6       30.53F WCI -12
BROOKINGS      FAIR      -2  -6  83 S7        30.50F WCI -15
WATERTOWN      FAIR      -1  -5  82 S10       30.44F WCI -17
HURON          FAIR       2  -3  80 S9        30.49F WCI -13
SISSETON         N/A      8  -2  63 SW12      30.44F WCI  -7
ABERDEEN       FAIR       2  -3  80 S14       30.44F WCI -16
MITCHELL       FAIR       5  -3  69 S12       30.53F WCI -11
PIERRE         FAIR       8   2  76 SE8       30.36F WCI  -4
MOBRIDGE       FAIR       8   0  69 SE13      30.30F WCI  -8
RAPID CITY     FAIR      15   5  64 SE6       30.20F WCI   6
$$

  *****  SOME WEATHER IN NEARBY STATES *****

CITY           SKY/WX    TMP DP  RH WIND       PRES   REMARKS
GLASGOW MT     FAIR       3  -4  72 SE9       30.10F WCI -12
GREAT FALLS MT FAIR      39  26  59 SW23G32   30.11R
CHEYENNE WY    FAIR      17   9  70 SW10      30.21F WCI   5
SCOTTSBLUFF NE FAIR       7   2  80 E5        30.28F WCI  -2
OMAHA NE       FAIR       4   0  83 SE3       30.68F
DES MOINES IA  FAIR      -1  -5  82 CALM      30.66F
DAVENPORT IA   FAIR       5  -1  76 W10       30.63F WCI -10
CHICAGO IL     FAIR      16   8  71 NW8       30.53R WCI   5
EAU CLAIRE WI  FAIR       0  -4  83 SW8       30.53F WCI -14
LA CROSSE WI   FAIR       3  -3  76 W8        30.59F WCI -10
$$

  *****  SOME NATIONAL WEATHER *****

CITY           SKY/WX    TMP DP  RH WIND       PRES   REMARKS
LA GUARDIA NY  MOCLDY    33  29  85 NE6       30.38F
RALEIGH NC     CLOUDY    37  22  54 CALM      30.32F
ATLANTA GA     LGT SNOW  30  29  96 NW14      30.37S FOG     WCI  19
NEW ORLEANS LA LGTSLEET  30  29  96 N17G24    30.55R FOG     WCI  18
OKLAHOMA CITY  FAIR      14  -2  49 NE6       30.71S WCI   5
ALBUQUERQUE NM FAIR      32  18  56 NE3       30.39R
SALT LAKE CITY MOCLDY    40  28  62 CALM      30.30F
LOS ANGELES CA CLOUDY    61  56  83 W10       30.13R
BOISE ID       CLOUDY    40  36  86 W5        30.37R
SEATTLE WA     FAIR      48  40  73 S8        30.23F
$$

*** WEATHER ACROSS MANITOBA...SASKATCHEWAN AND ONTARIO ***
                ***ONTARIO***

CITY           SKY/WX    TMP DP  RH WIND       PRES   REMARKS
GERALDTON      FLURRIES  10   1  67 SW17G23   30.04F WCI  -7
THUNDER BAY    CLOUDY    12   3  67 W9        30.27F WCI   0
SIOUX LOOKOUT  PTCLDY     7  -4  61 SW12G23   30.08F WCI  -9
TORONTO        MOCLDY    18  10  73 SW9       30.37S WCI   6
BIG TROUT LK   MOCLDY    10   3  72 W10       29.68F WCI  -3
PICKLE LAKE    NOT AVBL
DRYDEN         PTCLDY     7  -4  61 SW17      30.11F WCI -12
KENORA         MOCLDY     1  -8  66 SW17G26   30.14F WCI -19
$$
                *** MANITOBA***

CITY           SKY/WX    TMP DP  RH WIND       PRES   REMARKS
BRANDON        CLEAR      3  -6  66 W8        30.12F WCI -10
DAUPHIN        CLEAR     19   1  45 SW18G28   29.93F WCI   4
ISLAND LAKE    MOCLDY    14   1  57 W13G20    29.80F WCI   0
PILOT MOUND      N/A      5  -4  66 SW20        N/A  WCI -15
THE PAS        CLEAR     14   0  52 W10       29.83F WCI   1
THOMPSON       CLEAR      9   3  78 W3        29.73F
WINNIPEG       MOCLDY     5  -4  66 S21       30.17F WCI -16
LYNN LAKE      CLEAR     10   5  79 W6        29.70S WCI   1
CHURCHILL      LGT SNOW  14  10  85 N18       29.67R DRFTSNOWWCI  -3
GILLAM         MOCLDY    12   7  79 W8        29.69  WCI   1
$$
                ***SASKATCHEWAN***

CITY           SKY/WX    TMP DP  RH WIND       PRES   REMARKS
ESTEVAN        PTCLDY    14   0  52 S16G22    30.07F WCI  -2
KINDERSLEY     CLEAR     18  10  73 SW9       29.83F WCI   6
LLOYDMINSTER   PTCLDY    10   7  85 SW7       29.76F WCI   0
PRINCE ALBERT  CLEAR      0  -6  78 CALM      29.85F
REGINA         CLEAR      7   0  72 SE14      29.98  WCI -10
YORKTON        CLEAR     10   1  67 S10       29.96F WC



USA.gov is the U.S. government's official web portal to all federal, state and local government web resources and services.